Change the Weather History Date:

Saturday, June 29, 2013

  Actual Average Record
Temperature  
Mean Temperature 60 °F -  
Max Temperature 69 °F 68 °F 86 °F (2001)
Min Temperature 51 °F 48 °F 39 °F (2011)
Degree Days  
Heating Degree Days 5    
Growing Degree Days 10 (Base 50)    
Moisture  
Dew Point 47 °F    
Average Humidity 63    
Maximum Humidity 94    
Minimum Humidity 35    
Precipitation  
Precipitation 0.00 in - - ()
Sea Level Pressure  
Sea Level Pressure 29.94 in    
Wind  
Wind Speed 7 mph (North)    
Max Wind Speed 16 mph    
Max Gust Speed 23 mph    
Visibility 10 miles    
Events      
Averages and records for this station are not official NWS values.
T = Trace of Precipitation, MM = Missing Value Source: NWS Daily Summary

Daily Weather History Graph

Daily Weather History Graph

Search for Another Location

Airport or City:

Trip Planner

Search our weather history database for the weather conditions in past years. The results will help you decide how hot, cold, wet, or windy it might be!

Date:

Astronomy

Jun. 29, 2013 Rise Set
Actual Time 5:05 AM CDT 9:04 PM CDT
Civil Twilight 4:24 AM CDT 9:44 PM CDT
Nautical Twilight 3:28 AM CDT 10:41 PM CDT
Astronomical Twilight 1:56 AM CDT 12:11 AM CDT
Moon 12:01 AM CDT (6/29) 12:51 PM CDT (6/29)
Length of Visible Light 17h 19m
Length of Day
15h 58m
Waning Gibbous, 55% of the Moon is Illuminated
Jun 29
Waning Gibbous
Jun 29
Last Quarter
Jul 8
New
Jul 15
First Quarter
Jul 22
Full

Hourly Weather History & Observations

Time (CDT) Temp. Dew Point Humidity Pressure Visibility Wind Dir Wind Speed Gust Speed Precip Events Conditions
12:13 AM 57.2 °F 53.6 °F 88% 29.84 in 10.0 mi NNW 4.6 mph - N/A   Mostly Cloudy
12:33 AM 57.2 °F 53.6 °F 88% 29.84 in 10.0 mi NNW 4.6 mph - N/A   Scattered Clouds
12:54 AM 57.2 °F 53.6 °F 88% 29.84 in 10.0 mi NNW 4.6 mph - N/A   Scattered Clouds
1:13 AM 57.2 °F 53.6 °F 88% 29.84 in 10.0 mi NNW 4.6 mph - N/A   Scattered Clouds
1:34 AM 57.2 °F 53.6 °F 88% 29.83 in 10.0 mi NNW 4.6 mph - N/A   Scattered Clouds
1:53 AM 57.2 °F 53.6 °F 88% 29.83 in 10.0 mi NNW 5.8 mph - N/A   Clear
2:14 AM 57.2 °F 53.6 °F 88% 29.84 in 10.0 mi NNW 5.8 mph - N/A   Clear
2:33 AM 57.2 °F 53.6 °F 88% 29.84 in 10.0 mi NNW 6.9 mph - N/A   Scattered Clouds
2:53 AM 57.2 °F 53.6 °F 88% 29.84 in 10.0 mi NNW 4.6 mph - N/A   Scattered Clouds
3:13 AM 55.4 °F 53.6 °F 94% 29.84 in 10.0 mi NNW 4.6 mph - N/A   Scattered Clouds
3:33 AM 55.4 °F 51.8 °F 88% 29.84 in 10.0 mi NNW 5.8 mph - N/A   Scattered Clouds
3:54 AM 55.4 °F 51.8 °F 88% 29.85 in 10.0 mi North 4.6 mph - N/A   Scattered Clouds
4:14 AM 55.4 °F 51.8 °F 88% 29.85 in 10.0 mi North 6.9 mph - N/A   Clear
4:33 AM 55.4 °F 51.8 °F 88% 29.85 in 10.0 mi North 6.9 mph - N/A   Clear
4:53 AM 55.4 °F 51.8 °F 88% 29.86 in 10.0 mi North 6.9 mph - N/A   Clear
5:14 AM 55.4 °F 50.0 °F 82% 29.86 in 10.0 mi North 8.1 mph - N/A   Clear
5:33 AM 55.4 °F 50.0 °F 82% 29.87 in 10.0 mi North 6.9 mph - N/A   Clear
5:53 AM 55.4 °F 50.0 °F 82% 29.87 in 10.0 mi North 6.9 mph - N/A   Clear
6:14 AM 55.4 °F 48.2 °F 77% 29.88 in 10.0 mi North 9.2 mph - N/A   Clear
6:34 AM 55.4 °F 48.2 °F 77% 29.88 in 10.0 mi North 8.1 mph - N/A   Clear
6:54 AM 55.4 °F 48.2 °F 77% 29.89 in 10.0 mi North 6.9 mph - N/A   Clear
7:14 AM 57.2 °F 50.0 °F 77% 29.90 in 10.0 mi North 9.2 mph - N/A   Clear
7:34 AM 59.0 °F 50.0 °F 72% 29.90 in 10.0 mi North 8.1 mph - N/A   Clear
7:53 AM 59.0 °F 50.0 °F 72% 29.90 in 10.0 mi North 8.1 mph - N/A   Clear
8:13 AM 60.8 °F 50.0 °F 68% 29.91 in 10.0 mi North 8.1 mph - N/A   Clear
8:34 AM 60.8 °F 48.2 °F 63% 29.92 in 10.0 mi North 9.2 mph - N/A   Clear
8:53 AM 60.8 °F 50.0 °F 68% 29.92 in 10.0 mi North 8.1 mph - N/A   Clear
9:13 AM 62.6 °F 50.0 °F 63% 29.92 in 10.0 mi North 9.2 mph - N/A   Clear
9:34 AM 62.6 °F 50.0 °F 63% 29.93 in 10.0 mi NNW 10.4 mph - N/A   Clear
9:53 AM 62.6 °F 48.2 °F 59% 29.93 in 10.0 mi North 10.4 mph - N/A   Clear
10:13 AM 62.6 °F 48.2 °F 59% 29.93 in 10.0 mi North 11.5 mph 17.3 mph N/A   Clear
10:34 AM 62.6 °F 46.4 °F 55% 29.93 in 10.0 mi North 10.4 mph 18.4 mph N/A   Clear
10:53 AM 64.4 °F 48.2 °F 56% 29.94 in 10.0 mi North 9.2 mph - N/A   Clear
11:14 AM 64.4 °F 48.2 °F 56% 29.94 in 10.0 mi North 10.4 mph 16.1 mph N/A   Clear
11:33 AM 66.2 °F 46.4 °F 49% 29.94 in 10.0 mi NNE 12.7 mph 23.0 mph N/A   Clear
11:54 AM 68.0 °F 46.4 °F 46% 29.95 in 10.0 mi North 15.0 mph 21.9 mph N/A   Clear
12:14 PM 69.8 °F 48.2 °F 46% 29.95 in 10.0 mi North 9.2 mph - N/A   Scattered Clouds
12:34 PM 68.0 °F 48.2 °F 49% 29.96 in 10.0 mi NNE 10.4 mph 18.4 mph N/A   Clear
12:53 PM 66.2 °F 44.6 °F 46% 29.97 in 10.0 mi North 16.1 mph 23.0 mph N/A   Clear
1:13 PM 66.2 °F 44.6 °F 46% 29.98 in 10.0 mi NNE 13.8 mph 21.9 mph N/A   Clear
1:33 PM 66.2 °F 44.6 °F 46% 29.98 in 10.0 mi North 10.4 mph 18.4 mph N/A   Clear
1:54 PM 68.0 °F 44.6 °F 43% 29.98 in 10.0 mi North 11.5 mph 17.3 mph N/A   Clear
2:13 PM 69.8 °F 44.6 °F 40% 29.98 in 10.0 mi NNE 11.5 mph 17.3 mph N/A   Clear
2:33 PM 69.8 °F 42.8 °F 38% 29.98 in 10.0 mi NE 13.8 mph 23.0 mph N/A   Clear
2:54 PM 69.8 °F 41.0 °F 35% 29.99 in 10.0 mi NE 12.7 mph - N/A   Clear
3:14 PM 69.8 °F 42.8 °F 38% 29.99 in 10.0 mi NE 11.5 mph 18.4 mph N/A   Clear
3:33 PM 68.0 °F 42.8 °F 40% 29.99 in 10.0 mi North 9.2 mph 21.9 mph N/A   Clear
3:53 PM 68.0 °F 42.8 °F 40% 29.99 in 10.0 mi NNE 6.9 mph - N/A   Clear
4:14 PM 69.8 °F 42.8 °F 38% 29.99 in 10.0 mi NNE 11.5 mph - N/A   Clear
4:33 PM 69.8 °F 42.8 °F 38% 29.99 in 10.0 mi North 6.9 mph - N/A   Clear
4:53 PM 69.8 °F 41.0 °F 35% 29.99 in 10.0 mi NNW 11.5 mph - N/A   Clear
5:14 PM 69.8 °F 41.0 °F 35% 29.99 in 10.0 mi North 11.5 mph - N/A   Clear
5:33 PM 68.0 °F 39.2 °F 35% 29.99 in 10.0 mi North 9.2 mph 16.1 mph N/A   Clear
5:53 PM 68.0 °F 42.8 °F 40% 29.99 in 10.0 mi North 6.9 mph - N/A   Clear
6:13 PM 68.0 °F 42.8 °F 40% 29.99 in 10.0 mi North 8.1 mph - N/A   Clear
6:33 PM 66.2 °F 42.8 °F 43% 29.99 in 10.0 mi North 6.9 mph - N/A   Clear
6:53 PM 66.2 °F 42.8 °F 43% 30.00 in 10.0 mi North 10.4 mph - N/A   Clear
7:14 PM 66.2 °F 42.8 °F 43% 30.00 in 10.0 mi North 8.1 mph - N/A   Clear
7:34 PM 64.4 °F 42.8 °F 45% 30.00 in 10.0 mi NNW 4.6 mph - N/A   Clear
7:54 PM 62.6 °F 42.8 °F 48% 30.01 in 10.0 mi NNW 4.6 mph - N/A   Clear
8:13 PM 60.8 °F 44.6 °F 55% 30.01 in 10.0 mi Calm Calm - N/A   Clear
8:33 PM 59.0 °F 42.8 °F 55% 30.01 in 10.0 mi WNW 3.5 mph - N/A   Clear
8:54 PM 57.2 °F 44.6 °F 63% 30.01 in 10.0 mi NW 4.6 mph - N/A   Clear
9:14 PM 55.4 °F 44.6 °F 67% 30.01 in 10.0 mi WNW 4.6 mph - N/A   Clear
9:33 PM 53.6 °F 44.6 °F 72% 30.02 in 10.0 mi WNW 4.6 mph - N/A   Clear
9:54 PM 53.6 °F 44.6 °F 72% 30.02 in 10.0 mi WNW 4.6 mph - N/A   Clear
10:14 PM 53.6 °F 44.6 °F 72% 30.02 in 10.0 mi WNW 3.5 mph - N/A   Clear
10:33 PM 51.8 °F 44.6 °F 76% 30.01 in 10.0 mi WNW 4.6 mph - N/A   Clear
10:53 PM 51.8 °F 42.8 °F 71% 30.02 in 10.0 mi WNW 4.6 mph - N/A   Clear
11:13 PM 53.6 °F 42.8 °F 67% 30.02 in 10.0 mi WNW 4.6 mph - N/A   Clear
11:34 PM 53.6 °F 42.8 °F 67% 30.02 in 10.0 mi NW 5.8 mph - N/A   Clear
11:54 PM 55.4 °F 42.8 °F 63% 30.02 in 10.0 mi NW 4.6 mph - N/A   Clear